User: anonymous   Login
Location: Unspecified
(0.0000°N, 0.0000°E)
Time: 13:47:18
(UTC+00:00)
Language:

IGS OPTICAL 5 - Orbit

View from above orbital plane
View from above orbital plane
View from above satellite
View from above satellite

Ground track
Ground track

The orbit data is extracted from the following two-line orbital elements,

1 40538U 15015A   18257.86407017 0.00000200  00000-0  99597-5 0    07
2 40538  97.4940 331.6938 0003500 339.9726  20.0273 15.17627245    09
Epoch (UTC): 14 September 2018 20:44:15
Eccentricity: 0.0003500
inclination: 97.4940°
perigee height: 510 km
apogee height: 515 km
right ascension of ascending node: 331.6938°
argument of perigee: 339.9726°
revolutions per day: 15.17627245
mean anomaly at epoch: 20.0273°
orbit number at epoch: 0

The dashed part of the orbit path shows where the satellite is in the earth's shadow,  

DLR